Dewpoint
23 13 9 14 15 12 10 7 3 9 18 13 14 15 16 17 16 15 14 13 12 12 12 13 14 14 13 13 11 13 22 25 25 24 23 26 25 27 30 33 37 40 42 43
16 13 19 19 16 11 8 5 11 16 18 13 14 15 15 14 15 15 14 13 12 12 12 13 14 15 14 13 13 18 24 26 26 25 26 23 22 21 23 26 29 33 38 41
12 20 22 16 15 10 12 8 12 10 16 16 13 13 14 14 13 14 14 15 14 14 14 14 15 15 17 16 16 19 25 28 27 28 29 29 27 25 23 23 27 30 31 37
20 21 18 16 13 14 8 19 17 15 6 7 14 13 14 11 10 11 12 12 11 11 11 10 13 16 17 19 20 22 27 28 28 28 28 29 27 24 24 23 26 28 28 31
16 18 17 16 18 18 18 21 18 17 13 12 11 9 6 11 10 9 10 10 10 11 11 10 12 17 16 21 23 24 27 26 26 27 25 23 24 24 23 22 26 27 28 29
20 23 20 20 23 22 21 17 14 14 12 17 10 6 1 11 12 10 9 8 9 9 10 11 15 19 17 22 25 26 27 24 24 26 25 25 25 25 25 25 25 26 26 29
19 19 21 22 19 21 12 7 23 19 18 18 10 10 3 12 13 11 6 6 7 9 10 15 17 19 20 24 26 24 24 22 22 23 23 24 23 24 24 25 24 23 24 27
12 13 19 20 16 13 15 11 24 11 11 7 9 13 3 13 12 9 9 8 8 9 14 18 20 22 24 24 22 22 24 22 22 22 22 22 22 23 23 23 25 24 23 23
6 11 17 19 19 17 16 14 9 16 7 13 6 6 12 14 10 8 6 6 6 11 18 21 23 22 22 21 21 22 22 22 21 21 21 20 20 20 20 21 21 23 24 21
10 16 16 19 19 20 17 13 12 18 8 7 5 1 -5 12 10 7 5 5 7 14 19 20 21 20 20 18 19 20 21 20 19 19 18 17 17 17 17 17 19 21 22 23
12 16 14 15 14 13 17 18 15 11 8 12 7 -0 2 8 12 10 6 5 9 15 17 19 20 19 17 17 17 19 20 19 18 17 17 16 15 15 15 15 16 17 20 22
12 18 15 13 13 13 16 15 13 21 11 6 9 5 10 9 13 12 7 7 13 16 18 19 19 18 17 16 16 17 18 18 16 15 15 14 14 13 14 14 14 16 17 21
19 21 17 11 6 11 12 14 11 15 18 13 15 4 10 10 10 8 10 12 17 19 20 20 19 18 17 16 16 15 16 16 15 13 13 12 13 13 16 16 15 15 18 21
19 18 24 18 9 11 9 12 11 18 16 16 10 24 8 9 12 8 8 12 18 18 18 19 19 18 17 16 15 13 13 13 13 11 11 11 12 12 14 14 13 15 16 19
22 20 11 9 8 11 10 12 13 13 16 15 16 14 18 21 20 21 16 15 17 17 17 18 19 19 17 16 14 12 11 10 9 9 10 10 11 12 12 11 11 13 14 17
19 22 11 12 9 8 10 9 15 12 16 9 6 9 10 13 17 18 20 21 18 20 21 21 19 18 17 15 14 10 8 9 8 9 7 7 8 9 9 8 9 10 13 15
22 20 17 18 3 5 10 4 8 16 17 18 12 16 10 14 16 21 21 22 23 22 21 19 18 17 17 12 11 6 7 8 7 6 5 6 7 6 6 7 7 9 12 14
22 21 21 17 8 8 8 1 2 8 12 16 17 15 13 21 18 21 22 23 23 21 18 17 18 16 13 9 4 4 5 5 4 4 5 5 5 4 5 5 7 9 12 13
21 23 20 16 12 10 4 -0 -0 5 4 6 12 10 9 9 11 11 20 22 22 19 16 14 14 12 6 2 2 4 4 3 3 3 4 4 4 3 4 4 7 9 11 12
14 18 22 8 12 12 4 2 4 1 2 2 7 8 6 9 3 15 20 19 15 13 10 9 8 5 2 1 3 4 3 3 2 4 4 4 4 4 5 6 7 9 10 11
14 16 15 16 15 20 6 3 5 8 14 3 6 8 9 7 19 20 18 16 13 10 7 8 3 3 2 1 4 3 4 2 3 5 4 4 4 5 6 6 7 7 7 9
15 15 15 17 13 13 4 5 10 15 8 10 9 9 10 9 11 15 14 11 9 7 8 5 3 2 1 1 5 4 3 3 4 3 3 3 4 5 5 4 4 4 5 5
16 21 17 17 15 14 8 24 19 17 17 10 10 10 10 9 10 12 11 8 6 5 6 5 3 2 3 3 1 -1 3 3 2 1 1 3 4 4 4 3 2 4 4 4
15 13 14 14 17 12 14 15 15 15 16 14 14 13 11 9 9 8 7 6 3 2 3 4 2 2 2 1 1 1 1 1 -0 1 2 2 2 2 3 2 2 4 4 5
12 12 13 12 7 9 13 16 15 13 14 13 15 16 13 11 8 7 7 5 3 2 4 4 3 3 2 1 1 1 1 -0 1 1 1 2 2 3 2 2 3 4 4 8
9 10 9 11 9 13 10 11 13 12 13 13 13 14 13 13 11 10 8 6 6 6 5 3 3 2 2 1 0 -0 -1 -2 -2 1 2 2 2 2 1 1 2 4 7 9
Lifted_Index
7 6 6 6 7 6 6 6 6 7 9 9 9 9 10 12 13 12 12 12 12 13 14 14 15 15 15 15 14 14 13 13 12 12 11 11 10 11 11 12 11 10 8 7
6 6 7 7 7 6 6 6 6 7 9 9 9 9 10 12 12 12 12 12 12 12 13 14 14 15 15 15 14 14 13 12 11 10 10 9 9 9 10 11 12 11 10 9
6 7 7 7 6 6 6 6 7 7 8 9 8 8 8 10 11 12 12 11 12 12 12 13 14 15 15 15 14 13 12 11 10 9 8 8 8 8 8 9 10 11 11 10
6 7 7 6 6 6 6 7 8 8 7 7 7 6 7 9 10 10 11 11 11 12 12 13 14 14 15 14 13 13 12 10 9 8 8 8 8 8 7 7 8 10 10 10
7 7 7 6 7 7 7 8 8 8 7 6 6 5 6 7 8 9 10 10 11 12 12 13 14 15 15 14 13 12 11 9 8 8 8 9 9 8 8 7 7 8 10 10
7 8 8 7 8 8 8 8 7 6 5 5 5 5 5 6 8 9 9 10 11 11 12 13 14 15 15 14 12 11 10 9 8 8 9 9 9 9 8 7 6 8 10 10
6 6 8 8 8 8 8 6 4 3 3 3 5 6 5 7 8 9 9 10 10 11 12 13 14 14 14 13 12 10 10 9 8 8 9 9 9 9 8 8 7 8 9 10
3 4 7 8 8 7 6 5 4 2 2 3 5 6 6 7 9 9 10 10 10 11 12 12 13 14 14 13 11 10 10 9 9 9 9 9 8 8 8 8 8 8 9 9
2 4 6 8 9 8 6 6 5 4 3 3 4 5 6 7 8 9 9 9 10 11 11 12 13 14 13 13 11 10 10 9 9 9 9 9 9 9 9 9 8 8 9 9
4 4 6 8 8 8 7 6 6 5 3 2 3 4 6 6 7 8 9 9 10 10 11 12 13 13 13 12 12 11 10 10 10 10 10 10 10 10 10 10 9 9 9 9
4 3 4 6 7 7 7 6 6 5 4 3 3 4 5 7 7 8 9 9 10 11 11 12 13 13 13 12 12 11 11 10 10 10 11 11 11 11 11 10 10 9 9 9
3 3 3 4 6 7 7 6 6 5 4 4 3 4 6 7 8 8 9 9 10 11 11 12 13 13 13 12 12 11 11 11 11 11 11 11 12 12 11 11 10 10 10 9
4 3 2 3 5 6 6 6 6 6 5 4 3 4 6 7 8 8 9 9 10 10 11 12 13 13 13 12 11 11 12 12 11 12 12 12 12 12 12 11 11 10 10 10
5 4 3 3 3 4 5 5 6 6 5 4 3 4 5 7 7 8 9 9 10 10 11 12 12 12 12 12 11 12 12 12 12 12 12 12 12 12 12 12 11 10 10 10
6 4 3 3 3 4 4 6 6 6 6 5 4 4 5 6 7 8 9 9 9 10 11 12 12 12 12 12 11 12 12 12 13 13 13 13 13 13 13 12 12 11 10 10
5 4 3 3 4 4 4 5 6 7 7 6 4 4 5 6 7 8 8 9 9 10 11 11 12 12 12 11 11 12 12 13 13 13 13 14 14 14 14 14 13 12 11 11
4 3 3 3 3 4 4 5 6 6 6 6 5 4 5 6 7 8 8 9 9 10 11 11 12 12 12 12 12 12 12 13 13 13 13 14 15 15 15 15 14 13 12 12
4 4 3 3 3 3 5 6 6 6 6 6 5 5 6 7 7 8 8 9 10 11 11 12 12 13 13 12 12 13 13 13 13 13 14 14 15 15 15 15 14 14 14 13
6 5 4 3 2 3 5 7 7 6 5 6 6 6 6 7 7 7 9 10 11 11 12 12 13 13 13 13 13 13 13 13 13 13 14 15 15 15 15 15 14 15 14 14
6 5 4 2 2 3 6 8 8 6 5 5 6 6 6 6 6 7 9 10 11 12 12 13 13 13 13 13 13 13 13 13 13 14 15 16 16 16 15 15 15 15 15 14
4 4 3 2 2 4 7 8 8 6 5 6 6 6 6 7 7 8 10 11 11 12 13 13 13 13 13 13 13 13 13 14 14 15 16 16 17 16 16 15 15 15 15 15
3 3 3 3 3 5 7 7 6 6 6 7 7 7 7 8 8 10 10 11 11 12 12 13 13 13 13 13 13 13 14 15 15 16 16 17 17 17 16 16 16 15 15 14
5 4 4 4 5 6 7 7 7 8 8 8 8 8 8 8 9 10 10 11 11 11 12 13 13 13 13 13 14 14 15 16 16 16 17 17 17 17 17 16 16 15 15 14
6 6 6 6 7 7 7 7 8 9 9 9 9 9 9 9 10 10 10 11 11 11 12 13 13 12 13 13 14 15 16 16 17 17 17 17 17 17 17 17 17 16 16 15
6 6 6 6 7 8 7 8 8 9 9 10 10 9 9 10 10 11 11 11 11 12 12 13 13 13 13 14 15 16 17 17 17 17 17 17 17 18 18 18 18 17 17 17
6 6 6 6 7 8 8 8 9 9 9 9 9 9 10 10 11 11 11 11 11 12 12 13 13 13 13 14 15 16 17 17 17 17 17 17 17 18 18 18 19 18 18 18